Location: Alphen
(52.1351°N, 4.6549°E)
Time: 02:12:06
(UTC+00:00)

Cosmos 1092 Rocket - Pass Details

Date: 27 January 2021
Orbit: 954 x 995 km, 83.0° (Epoch: 26 February)

Event Time Altitude Azimuth Distance (km) Brightness Sun altitude
Rises 04:27:57 0° 351° (N) 3,646 7.0 -27.6°
Reaches altitude 10° 04:30:30 10° 354° (N) 2,698 6.3 -27.2°
Maximum altitude 04:36:37 64° 76° (ENE) 1,063 4.3 -26.3°
Drops below altitude 10° 04:42:44 10° 158° (SSE) 2,698 6.5 -25.3°
Sets 04:45:16 0° 161° (SSE) 3,646 7.2 -24.9°
